Year,Month,Day,Hour,Minute,Value (Times are PST for temperature in C)
2010,07,24,00,00,17.40
2010,07,24,00,01,17.40
2010,07,24,00,02,17.40
2010,07,24,00,03,17.30
2010,07,24,00,04,17.30
2010,07,24,00,05,17.30
2010,07,24,00,06,17.30
2010,07,24,00,07,17.30
2010,07,24,00,08,17.30
2010,07,24,00,09,17.30
2010,07,24,00,10,17.20
2010,07,24,00,11,17.20
2010,07,24,00,12,17.20
2010,07,24,00,13,17.20
2010,07,24,00,14,17.20
2010,07,24,00,15,17.20
2010,07,24,00,16,17.10
2010,07,24,00,17,17.10
2010,07,24,00,18,17.10
2010,07,24,00,19,17.00
2010,07,24,00,20,17.00
2010,07,24,00,21,16.90
2010,07,24,00,22,16.90
2010,07,24,00,23,16.90
2010,07,24,00,24,16.90
2010,07,24,00,25,16.80
2010,07,24,00,26,16.80
2010,07,24,00,27,16.80
2010,07,24,00,28,16.80
2010,07,24,00,29,16.80
2010,07,24,00,30,16.80
2010,07,24,00,31,16.80
2010,07,24,00,32,16.80
2010,07,24,00,33,16.70
2010,07,24,00,34,16.70
2010,07,24,00,35,16.70
2010,07,24,00,36,16.70
2010,07,24,00,37,16.70
2010,07,24,00,38,16.70
2010,07,24,00,39,16.70
2010,07,24,00,40,16.70
2010,07,24,00,41,16.70
2010,07,24,00,42,16.60
2010,07,24,00,43,16.60
2010,07,24,00,44,16.60
2010,07,24,00,45,16.60
2010,07,24,00,46,16.60
2010,07,24,00,47,16.50
2010,07,24,00,48,16.50
2010,07,24,00,49,16.50
2010,07,24,00,50,16.50
2010,07,24,00,51,16.50
2010,07,24,00,52,16.40
2010,07,24,00,53,16.40
2010,07,24,00,54,16.40
2010,07,24,00,55,16.40
2010,07,24,00,56,16.40
2010,07,24,00,57,16.40
2010,07,24,00,58,16.40
2010,07,24,00,59,16.30
2010,07,24,01,00,16.30
2010,07,24,01,01,16.30
2010,07,24,01,02,16.30
2010,07,24,01,03,16.30
2010,07,24,01,04,16.30
2010,07,24,01,05,16.30
2010,07,24,01,06,16.20
2010,07,24,01,07,16.20
2010,07,24,01,08,16.20
2010,07,24,01,09,16.20
2010,07,24,01,10,16.20
2010,07,24,01,11,16.20
2010,07,24,01,12,16.10
2010,07,24,01,13,16.10
2010,07,24,01,14,16.10
2010,07,24,01,15,16.10
2010,07,24,01,16,16.10
2010,07,24,01,17,16.10
2010,07,24,01,18,16.10
2010,07,24,01,19,16.00
2010,07,24,01,20,16.00
2010,07,24,01,21,16.00
2010,07,24,01,22,15.90
2010,07,24,01,23,15.90
2010,07,24,01,24,15.90
2010,07,24,01,25,15.90
2010,07,24,01,26,15.90
2010,07,24,01,27,15.80
2010,07,24,01,28,15.80
2010,07,24,01,29,15.80
2010,07,24,01,30,15.80
2010,07,24,01,31,15.70
2010,07,24,01,32,15.70
2010,07,24,01,33,15.70
2010,07,24,01,34,15.70
2010,07,24,01,35,15.70
2010,07,24,01,36,15.70
2010,07,24,01,37,15.60
2010,07,24,01,38,15.60
2010,07,24,01,39,15.60
2010,07,24,01,40,15.60
2010,07,24,01,41,15.60
2010,07,24,01,42,15.50
2010,07,24,01,43,15.50
2010,07,24,01,44,15.50
2010,07,24,01,45,15.50
2010,07,24,01,46,15.50
2010,07,24,01,47,15.50
2010,07,24,01,48,15.50
2010,07,24,01,49,15.50
2010,07,24,01,50,15.50
2010,07,24,01,51,15.50
2010,07,24,01,52,15.50
2010,07,24,01,53,15.50
2010,07,24,01,54,15.50
2010,07,24,01,55,15.50
2010,07,24,01,56,15.50
2010,07,24,01,57,15.50
2010,07,24,01,58,15.50
2010,07,24,01,59,15.50
2010,07,24,02,00,15.50
2010,07,24,02,01,15.50
2010,07,24,02,02,15.50
2010,07,24,02,03,15.50
2010,07,24,02,04,15.50
2010,07,24,02,05,15.40
2010,07,24,02,06,15.40
2010,07,24,02,07,15.40
2010,07,24,02,08,15.40
2010,07,24,02,09,15.40
2010,07,24,02,10,15.40
2010,07,24,02,11,15.30
2010,07,24,02,12,15.30
2010,07,24,02,13,15.30
2010,07,24,02,14,15.30
2010,07,24,02,15,15.30
2010,07,24,02,16,15.30
2010,07,24,02,17,15.20
2010,07,24,02,18,15.20
2010,07,24,02,19,15.20
2010,07,24,02,20,15.10
2010,07,24,02,21,15.10
2010,07,24,02,22,15.10
2010,07,24,02,23,15.00
2010,07,24,02,24,15.00
2010,07,24,02,25,15.00
2010,07,24,02,26,14.90
2010,07,24,02,27,14.90
2010,07,24,02,28,14.90
2010,07,24,02,29,14.90
2010,07,24,02,30,14.90
2010,07,24,02,31,14.90
2010,07,24,02,32,14.90
2010,07,24,02,33,14.90
2010,07,24,02,34,14.90
2010,07,24,02,35,14.90
2010,07,24,02,36,14.80
2010,07,24,02,37,14.80
2010,07,24,02,38,14.80
2010,07,24,02,39,14.80
2010,07,24,02,40,14.80
2010,07,24,02,41,14.80
2010,07,24,02,42,14.80
2010,07,24,02,43,14.80
2010,07,24,02,44,14.80
2010,07,24,02,45,14.70
2010,07,24,02,46,14.70
2010,07,24,02,47,14.70
2010,07,24,02,48,14.70
2010,07,24,02,49,14.70
2010,07,24,02,50,14.70
2010,07,24,02,51,14.70
2010,07,24,02,52,14.60
2010,07,24,02,53,14.60
2010,07,24,02,54,14.60
2010,07,24,02,55,14.60
2010,07,24,02,56,14.60
2010,07,24,02,57,14.60
2010,07,24,02,58,14.60
2010,07,24,02,59,14.50
2010,07,24,03,00,14.50
2010,07,24,03,01,14.50
2010,07,24,03,02,14.40
2010,07,24,03,06,14.30
2010,07,24,03,07,14.30
2010,07,24,03,08,14.30
2010,07,24,03,09,14.30
2010,07,24,03,10,14.30
2010,07,24,03,11,14.30
2010,07,24,03,12,14.30
2010,07,24,03,13,14.30
2010,07,24,03,14,14.30
2010,07,24,03,15,14.30
2010,07,24,03,16,14.30
2010,07,24,03,17,14.20
2010,07,24,03,18,14.30
2010,07,24,03,19,14.30
2010,07,24,03,20,14.30
2010,07,24,03,21,14.20
2010,07,24,03,22,14.20
2010,07,24,03,23,14.20
2010,07,24,03,24,14.30
2010,07,24,03,25,14.20
2010,07,24,03,26,14.30
2010,07,24,03,27,14.20
2010,07,24,03,28,14.20
2010,07,24,03,29,14.20
2010,07,24,03,30,14.20
2010,07,24,03,31,14.20
2010,07,24,03,32,14.20
2010,07,24,03,33,14.10
2010,07,24,03,34,14.10
2010,07,24,03,35,14.10
2010,07,24,03,36,14.10
2010,07,24,03,37,14.10
2010,07,24,03,38,14.10
2010,07,24,03,39,14.10
2010,07,24,03,40,14.10
2010,07,24,03,41,14.10
2010,07,24,03,42,14.10
2010,07,24,03,43,14.00
2010,07,24,03,44,14.00
2010,07,24,03,45,14.00
2010,07,24,03,46,14.00
2010,07,24,03,47,13.90
2010,07,24,03,48,13.90
2010,07,24,03,49,13.90
2010,07,24,03,50,13.90
2010,07,24,03,51,13.90
2010,07,24,03,52,13.90
2010,07,24,03,53,13.80
2010,07,24,03,54,13.80
2010,07,24,03,55,13.80
2010,07,24,03,56,13.80
2010,07,24,03,57,13.70
2010,07,24,03,58,13.70
2010,07,24,03,59,13.70
2010,07,24,04,00,13.70
2010,07,24,04,01,13.70
2010,07,24,04,02,13.70
2010,07,24,04,03,13.60
2010,07,24,04,04,13.60
2010,07,24,04,05,13.60
2010,07,24,04,06,13.60
2010,07,24,04,07,13.60
2010,07,24,04,08,13.60
2010,07,24,04,09,13.60
2010,07,24,04,10,13.60
2010,07,24,04,11,13.50
2010,07,24,04,12,13.50
2010,07,24,04,13,13.50
2010,07,24,04,14,13.40
2010,07,24,04,15,13.40
2010,07,24,04,16,13.40
2010,07,24,04,17,13.40
2010,07,24,04,18,13.40
2010,07,24,04,19,13.40
2010,07,24,04,20,13.40
2010,07,24,04,21,13.40
2010,07,24,04,22,13.40
2010,07,24,04,23,13.30
2010,07,24,04,24,13.30
2010,07,24,04,25,13.30
2010,07,24,04,26,13.30
2010,07,24,04,27,13.30
2010,07,24,04,28,13.30
2010,07,24,04,29,13.20
2010,07,24,04,30,13.20
2010,07,24,04,31,13.20
2010,07,24,04,32,13.20
2010,07,24,04,33,13.20
2010,07,24,04,34,13.20
2010,07,24,04,35,13.20
2010,07,24,04,36,13.20
2010,07,24,04,37,13.20
2010,07,24,04,38,13.20
2010,07,24,04,39,13.20
2010,07,24,04,40,13.20
2010,07,24,04,41,13.20
2010,07,24,04,42,13.20
2010,07,24,04,43,13.20
2010,07,24,04,44,13.20
2010,07,24,04,45,13.20
2010,07,24,04,46,13.10
2010,07,24,04,47,13.10
2010,07,24,04,48,13.10
2010,07,24,04,49,13.10
2010,07,24,04,50,13.10
2010,07,24,04,51,13.10
2010,07,24,04,52,13.20
2010,07,24,04,53,13.10
2010,07,24,04,54,13.20
2010,07,24,04,55,13.20
2010,07,24,04,56,13.20
2010,07,24,04,57,13.20
2010,07,24,04,58,13.10
2010,07,24,04,59,13.10
2010,07,24,05,00,13.10
2010,07,24,05,01,13.10
2010,07,24,05,02,13.10
2010,07,24,05,03,13.10
2010,07,24,05,04,13.10
2010,07,24,05,05,13.10
2010,07,24,05,06,13.10
2010,07,24,05,07,13.10
2010,07,24,05,08,13.10
2010,07,24,05,09,13.10
2010,07,24,05,10,13.10
2010,07,24,05,11,13.10
2010,07,24,05,12,13.00
2010,07,24,05,13,13.00
2010,07,24,05,14,13.00
2010,07,24,05,15,12.90
2010,07,24,05,16,12.90
2010,07,24,05,17,12.90
2010,07,24,05,18,12.90
2010,07,24,05,19,12.90
2010,07,24,05,20,12.90
2010,07,24,05,21,12.80
2010,07,24,05,22,12.80
2010,07,24,05,23,12.80
2010,07,24,05,24,12.80
2010,07,24,05,25,12.80
2010,07,24,05,26,12.80
2010,07,24,05,27,12.70
2010,07,24,05,28,12.70
2010,07,24,05,29,12.70
2010,07,24,05,30,12.70
2010,07,24,05,31,12.70
2010,07,24,05,32,12.70
2010,07,24,05,33,12.70
2010,07,24,05,34,12.70
2010,07,24,05,35,12.70
2010,07,24,05,36,12.70
2010,07,24,05,37,12.70
2010,07,24,05,38,12.70
2010,07,24,05,39,12.70
2010,07,24,05,40,12.70
2010,07,24,05,41,12.70
2010,07,24,05,42,12.70
2010,07,24,05,43,12.70
2010,07,24,05,44,12.70
2010,07,24,05,45,12.60
2010,07,24,05,46,12.60
2010,07,24,05,47,12.60
2010,07,24,05,48,12.60
2010,07,24,05,49,12.60
2010,07,24,05,50,12.60
2010,07,24,05,51,12.70
2010,07,24,05,52,12.70
2010,07,24,05,53,12.70
2010,07,24,05,54,12.70
2010,07,24,05,55,12.70
2010,07,24,05,56,12.70
2010,07,24,05,57,12.70
2010,07,24,05,58,12.70
2010,07,24,05,59,12.80
2010,07,24,06,00,12.80
2010,07,24,06,01,12.80
2010,07,24,06,02,12.80
2010,07,24,06,03,12.70
2010,07,24,06,04,12.70
2010,07,24,06,05,12.70
2010,07,24,06,06,12.70
2010,07,24,06,07,12.70
2010,07,24,06,08,12.70
2010,07,24,06,09,12.70
2010,07,24,06,10,12.70
2010,07,24,06,11,12.70
2010,07,24,06,12,12.70
2010,07,24,06,13,12.70
2010,07,24,06,14,12.70
2010,07,24,06,15,12.70
2010,07,24,06,16,12.70
2010,07,24,06,17,12.70
2010,07,24,06,18,12.70
2010,07,24,06,19,12.70
2010,07,24,06,20,12.70
2010,07,24,06,21,12.70
2010,07,24,06,22,12.70
2010,07,24,06,23,12.70
2010,07,24,06,24,12.70
2010,07,24,06,25,12.70
2010,07,24,06,26,12.70
2010,07,24,06,27,12.70
2010,07,24,06,28,12.70
2010,07,24,06,29,12.70
2010,07,24,06,30,12.70
2010,07,24,06,31,12.80
2010,07,24,06,32,12.80
2010,07,24,06,33,12.80
2010,07,24,06,34,12.80
2010,07,24,06,35,12.80
2010,07,24,06,36,12.80
2010,07,24,06,37,12.80
2010,07,24,06,38,12.80
2010,07,24,06,39,12.80
2010,07,24,06,40,12.80
2010,07,24,06,41,12.80
2010,07,24,06,42,12.80
2010,07,24,06,43,12.80
2010,07,24,06,44,12.80
2010,07,24,06,45,12.80
2010,07,24,06,46,12.90
2010,07,24,06,47,12.90
2010,07,24,06,48,12.90
2010,07,24,06,49,12.90
2010,07,24,06,50,12.90
2010,07,24,06,51,12.90
2010,07,24,06,52,13.00
2010,07,24,06,53,13.00
2010,07,24,06,54,13.00
2010,07,24,06,55,13.10
2010,07,24,06,56,13.10
2010,07,24,06,57,13.10
2010,07,24,06,58,13.10
2010,07,24,06,59,13.10
2010,07,24,07,00,13.10
2010,07,24,07,01,13.20
2010,07,24,07,02,13.20
2010,07,24,07,03,13.20
2010,07,24,07,04,13.20
2010,07,24,07,05,13.30
2010,07,24,07,06,13.30
2010,07,24,07,07,13.30
2010,07,24,07,08,13.30
2010,07,24,07,09,13.40
2010,07,24,07,10,13.40
2010,07,24,07,11,13.50
2010,07,24,07,12,13.50
2010,07,24,07,13,13.60
2010,07,24,07,14,13.60
2010,07,24,07,15,13.70
2010,07,24,07,16,13.70
2010,07,24,07,17,13.80
2010,07,24,07,18,13.80
2010,07,24,07,19,13.90
2010,07,24,07,20,14.00
2010,07,24,07,21,14.10
2010,07,24,07,22,14.30
2010,07,24,07,23,14.40
2010,07,24,07,24,14.50
2010,07,24,07,25,14.60
2010,07,24,07,26,14.70
2010,07,24,07,27,14.80
2010,07,24,07,28,14.80
2010,07,24,07,29,14.90
2010,07,24,07,30,15.00
2010,07,24,07,31,15.10
2010,07,24,07,32,15.20
2010,07,24,07,33,15.30
2010,07,24,07,34,15.40
2010,07,24,07,35,15.50
2010,07,24,07,36,15.50
2010,07,24,07,37,15.60
2010,07,24,07,38,15.70
2010,07,24,07,39,15.80
2010,07,24,07,40,15.80
2010,07,24,07,41,15.90
2010,07,24,07,42,16.00
2010,07,24,07,43,16.00
2010,07,24,07,44,16.10
2010,07,24,07,45,16.20
2010,07,24,07,46,16.20
2010,07,24,07,47,16.30
2010,07,24,07,48,16.40
2010,07,24,07,49,16.40
2010,07,24,07,50,16.50
2010,07,24,07,51,16.60
2010,07,24,07,52,16.60
2010,07,24,07,53,16.70
2010,07,24,07,54,16.80
2010,07,24,07,55,16.80
2010,07,24,07,56,16.80
2010,07,24,07,57,16.80
2010,07,24,07,58,16.80
2010,07,24,07,59,16.80
2010,07,24,08,00,16.80
2010,07,24,08,01,16.90
2010,07,24,08,02,16.90
2010,07,24,08,03,16.90
2010,07,24,08,04,17.00
2010,07,24,08,05,17.00
2010,07,24,08,06,17.10
2010,07,24,08,07,17.10
2010,07,24,08,08,17.10
2010,07,24,08,09,17.20
2010,07,24,08,10,17.20
2010,07,24,08,11,17.30
2010,07,24,08,12,17.40
2010,07,24,08,13,17.40
2010,07,24,08,14,17.50
2010,07,24,08,15,17.60
2010,07,24,08,16,17.60
2010,07,24,08,17,17.70
2010,07,24,08,18,17.70
2010,07,24,08,19,17.80
2010,07,24,08,20,17.80
2010,07,24,08,21,17.90
2010,07,24,08,22,17.90
2010,07,24,08,23,18.00
2010,07,24,08,24,18.10
2010,07,24,08,25,18.10
2010,07,24,08,26,18.20
2010,07,24,08,27,18.30
2010,07,24,08,28,18.40
2010,07,24,08,29,18.50
2010,07,24,08,30,18.50
2010,07,24,08,31,18.60
2010,07,24,08,32,18.60
2010,07,24,08,33,18.70
2010,07,24,08,34,18.70
2010,07,24,08,35,18.70
2010,07,24,08,36,18.70
2010,07,24,08,37,18.80
2010,07,24,08,38,18.80
2010,07,24,08,39,18.90
2010,07,24,08,40,19.00
2010,07,24,08,41,19.00
2010,07,24,08,42,19.10
2010,07,24,08,43,19.20
2010,07,24,08,44,19.40
2010,07,24,08,45,19.50
2010,07,24,08,46,19.70
2010,07,24,08,47,19.70
2010,07,24,08,48,19.80
2010,07,24,08,49,19.80
2010,07,24,08,50,19.90
2010,07,24,08,51,19.90
2010,07,24,08,52,19.90
2010,07,24,08,53,20.00
2010,07,24,08,54,20.10
2010,07,24,08,55,20.20
2010,07,24,08,56,20.20
2010,07,24,08,57,20.20
2010,07,24,08,58,20.20
2010,07,24,08,59,20.20
2010,07,24,09,00,20.20
2010,07,24,09,01,20.20
2010,07,24,09,02,20.30
2010,07,24,09,03,20.30
2010,07,24,09,04,20.30
2010,07,24,09,05,20.30
2010,07,24,09,06,20.40
2010,07,24,09,07,20.40
2010,07,24,09,08,20.50
2010,07,24,09,09,20.60
2010,07,24,09,10,20.60
2010,07,24,09,11,20.50
2010,07,24,09,12,20.50
2010,07,24,09,13,20.50
2010,07,24,09,14,20.50
2010,07,24,09,15,20.50
2010,07,24,09,16,20.50
2010,07,24,09,17,20.60
2010,07,24,09,18,20.60
2010,07,24,09,19,20.70
2010,07,24,09,20,20.70
2010,07,24,09,21,20.70
2010,07,24,09,22,20.80
2010,07,24,09,23,20.80
2010,07,24,09,24,20.90
2010,07,24,09,25,20.90
2010,07,24,09,26,20.90
2010,07,24,09,27,21.00
2010,07,24,09,28,21.00
2010,07,24,09,29,21.00
2010,07,24,09,30,21.00
2010,07,24,09,31,21.10
2010,07,24,09,32,21.10
2010,07,24,09,33,21.10
2010,07,24,09,34,21.10
2010,07,24,09,35,21.20
2010,07,24,09,36,21.20
2010,07,24,09,37,21.20
2010,07,24,09,38,21.20
2010,07,24,09,39,21.20
2010,07,24,09,40,21.20
2010,07,24,09,41,21.30
2010,07,24,09,42,21.40
2010,07,24,09,43,21.40
2010,07,24,09,44,21.40
2010,07,24,09,45,21.50
2010,07,24,09,46,21.40
2010,07,24,09,47,21.50
2010,07,24,09,48,21.50
2010,07,24,09,49,21.60
2010,07,24,09,50,21.60
2010,07,24,09,51,21.70
2010,07,24,09,52,21.80
2010,07,24,09,53,21.80
2010,07,24,09,54,21.80
2010,07,24,09,55,21.80
2010,07,24,09,56,21.80
2010,07,24,09,57,21.70
2010,07,24,09,58,21.60
2010,07,24,09,59,21.60
2010,07,24,10,00,21.60
2010,07,24,10,01,21.60
2010,07,24,10,02,21.60
2010,07,24,10,03,21.70
2010,07,24,10,04,21.70
2010,07,24,10,05,21.70
2010,07,24,10,06,21.70
2010,07,24,10,07,21.80
2010,07,24,10,08,21.80
2010,07,24,10,09,21.80
2010,07,24,10,10,21.80
2010,07,24,10,11,21.80
2010,07,24,10,12,21.80
2010,07,24,10,13,21.80
2010,07,24,10,14,21.80
2010,07,24,10,15,21.80
2010,07,24,10,16,21.80
2010,07,24,10,17,21.80
2010,07,24,10,18,21.90
2010,07,24,10,19,21.90
2010,07,24,10,20,22.00
2010,07,24,10,21,22.00
2010,07,24,10,22,22.00
2010,07,24,10,23,22.10
2010,07,24,10,24,22.10
2010,07,24,10,25,22.10
2010,07,24,10,26,22.10
2010,07,24,10,27,22.20
2010,07,24,10,28,22.30
2010,07,24,10,29,22.40
2010,07,24,10,30,22.40
2010,07,24,10,31,22.40
2010,07,24,10,32,22.40
2010,07,24,10,33,22.40
2010,07,24,10,34,22.50
2010,07,24,10,35,22.60
2010,07,24,10,36,22.60
2010,07,24,10,37,22.70
2010,07,24,10,38,22.70
2010,07,24,10,39,22.70
2010,07,24,10,40,22.70
2010,07,24,10,41,22.60
2010,07,24,10,42,22.60
2010,07,24,10,43,22.60
2010,07,24,10,44,22.60
2010,07,24,10,45,22.70
2010,07,24,10,46,22.70
2010,07,24,10,47,22.70
2010,07,24,10,48,22.70
2010,07,24,10,49,22.70
2010,07,24,10,50,22.70
2010,07,24,10,51,22.70
2010,07,24,10,52,22.80
2010,07,24,10,53,22.80
2010,07,24,10,54,22.90
2010,07,24,10,55,22.90
2010,07,24,10,56,22.90
2010,07,24,10,57,22.90
2010,07,24,10,58,23.00
2010,07,24,10,59,23.00
2010,07,24,11,00,23.10
2010,07,24,11,01,23.20
2010,07,24,11,02,23.20
2010,07,24,11,03,23.20
2010,07,24,11,04,23.20
2010,07,24,11,05,23.20
2010,07,24,11,06,23.20
2010,07,24,11,07,23.20
2010,07,24,11,08,23.20
2010,07,24,11,09,23.20
2010,07,24,11,10,23.20
2010,07,24,11,11,23.20
2010,07,24,11,12,23.20
2010,07,24,11,13,23.30
2010,07,24,11,14,23.40
2010,07,24,11,15,23.40
2010,07,24,11,16,23.40
2010,07,24,11,17,23.30
2010,07,24,11,18,23.40
2010,07,24,11,19,23.40
2010,07,24,11,20,23.40
2010,07,24,11,21,23.50
2010,07,24,11,22,23.50
2010,07,24,11,23,23.50
2010,07,24,11,24,23.50
2010,07,24,11,25,23.50
2010,07,24,11,26,23.60
2010,07,24,11,27,23.50
2010,07,24,11,28,23.50
2010,07,24,11,29,23.60
2010,07,24,11,30,23.70
2010,07,24,11,31,23.80
2010,07,24,11,32,23.90
2010,07,24,11,33,23.90
2010,07,24,11,34,23.90
2010,07,24,11,35,23.90
2010,07,24,11,36,23.90
2010,07,24,11,37,24.00
2010,07,24,11,38,24.10
2010,07,24,11,39,24.10
2010,07,24,11,40,24.00
2010,07,24,11,41,24.00
2010,07,24,11,42,23.90
2010,07,24,11,43,23.80
2010,07,24,11,44,23.90
2010,07,24,11,45,23.90
2010,07,24,11,46,23.80
2010,07,24,11,47,23.80
2010,07,24,11,48,23.80
2010,07,24,11,49,23.90
2010,07,24,11,50,24.00
2010,07,24,11,51,24.00
2010,07,24,11,52,24.10
2010,07,24,11,53,24.20
2010,07,24,11,54,24.30
2010,07,24,11,55,24.30
2010,07,24,11,56,24.30
2010,07,24,11,57,24.30
2010,07,24,11,58,24.30
2010,07,24,11,59,24.30
2010,07,24,12,00,24.40
2010,07,24,12,01,24.40
2010,07,24,12,02,24.50
2010,07,24,12,03,24.60
2010,07,24,12,04,24.60
2010,07,24,12,05,24.60
2010,07,24,12,06,24.60
2010,07,24,12,07,24.60
2010,07,24,12,08,24.50
2010,07,24,12,09,24.50
2010,07,24,12,10,24.60
2010,07,24,12,11,24.60
2010,07,24,12,12,24.70
2010,07,24,12,13,24.70
2010,07,24,12,14,24.80
2010,07,24,12,15,24.80
2010,07,24,12,16,24.80
2010,07,24,12,17,24.90
2010,07,24,12,18,25.00
2010,07,24,12,19,25.10
2010,07,24,12,20,25.10
2010,07,24,12,21,25.10
2010,07,24,12,22,25.10
2010,07,24,12,23,25.10
2010,07,24,12,24,25.20
2010,07,24,12,25,25.30
2010,07,24,12,26,25.30
2010,07,24,12,27,25.30
2010,07,24,12,28,25.30
2010,07,24,12,29,25.30
2010,07,24,12,30,25.30
2010,07,24,12,31,25.30
2010,07,24,12,32,25.30
2010,07,24,12,33,25.30
2010,07,24,12,34,25.30
2010,07,24,12,35,25.30
2010,07,24,12,36,25.40
2010,07,24,12,37,25.50
2010,07,24,12,38,25.50
2010,07,24,12,39,25.50
2010,07,24,12,40,25.60
2010,07,24,12,41,25.60
2010,07,24,12,42,25.50
2010,07,24,12,43,25.40
2010,07,24,12,44,25.40
2010,07,24,12,45,25.50
2010,07,24,12,46,25.50
2010,07,24,12,47,25.50
2010,07,24,12,48,25.60
2010,07,24,12,49,25.70
2010,07,24,12,50,25.70
2010,07,24,12,51,25.70
2010,07,24,12,52,25.70
2010,07,24,12,53,25.70
2010,07,24,12,54,25.70
2010,07,24,12,55,25.70
2010,07,24,12,56,25.70
2010,07,24,12,57,25.80
2010,07,24,12,58,25.80
2010,07,24,12,59,25.80
2010,07,24,13,00,25.90
2010,07,24,13,01,25.90
2010,07,24,13,02,26.00
2010,07,24,13,03,26.00
2010,07,24,13,04,26.00
2010,07,24,13,05,26.10
2010,07,24,13,06,26.20
2010,07,24,13,07,26.20
2010,07,24,13,08,26.20
2010,07,24,13,09,26.20
2010,07,24,13,10,26.30
2010,07,24,13,11,26.40
2010,07,24,13,12,26.50
2010,07,24,13,13,26.60
2010,07,24,13,14,26.70
2010,07,24,13,15,26.70
2010,07,24,13,16,26.80
2010,07,24,13,17,26.70
2010,07,24,13,18,26.60
2010,07,24,13,19,26.60
2010,07,24,13,20,26.50
2010,07,24,13,21,26.50
2010,07,24,13,22,26.50
2010,07,24,13,23,26.50
2010,07,24,13,24,26.50
2010,07,24,13,25,26.40
2010,07,24,13,26,26.40
2010,07,24,13,27,26.30
2010,07,24,13,28,26.20
2010,07,24,13,29,26.30
2010,07,24,13,30,26.30
2010,07,24,13,31,26.30
2010,07,24,13,32,26.30
2010,07,24,13,33,26.40
2010,07,24,13,34,26.40
2010,07,24,13,35,26.50
2010,07,24,13,36,26.50
2010,07,24,13,37,26.50
2010,07,24,13,38,26.50
2010,07,24,13,39,26.60
2010,07,24,13,40,26.60
2010,07,24,13,41,26.70
2010,07,24,13,42,26.70
2010,07,24,13,43,26.70
2010,07,24,13,44,26.70
2010,07,24,13,45,26.60
2010,07,24,13,46,26.70
2010,07,24,13,47,26.70
2010,07,24,13,48,26.80
2010,07,24,13,49,26.80
2010,07,24,13,50,26.80
2010,07,24,13,51,26.80
2010,07,24,13,52,26.80
2010,07,24,13,53,26.80
2010,07,24,13,54,26.80
2010,07,24,13,55,26.80
2010,07,24,13,56,26.80
2010,07,24,13,57,26.90
2010,07,24,13,58,26.90
2010,07,24,13,59,26.90
2010,07,24,14,00,27.00
2010,07,24,14,01,26.90
2010,07,24,14,02,26.90
2010,07,24,14,03,27.00
2010,07,24,14,04,27.10
2010,07,24,14,05,27.30
2010,07,24,14,06,27.30
2010,07,24,14,07,27.20
2010,07,24,14,08,27.20
2010,07,24,14,09,27.30
2010,07,24,14,10,27.30
2010,07,24,14,11,27.30
2010,07,24,14,12,27.30
2010,07,24,14,13,27.40
2010,07,24,14,14,27.50
2010,07,24,14,15,27.50
2010,07,24,14,16,27.40
2010,07,24,14,17,27.30
2010,07,24,14,18,27.30
2010,07,24,14,19,27.40
2010,07,24,14,20,27.40
2010,07,24,14,21,27.50
2010,07,24,14,22,27.50
2010,07,24,14,23,27.50
2010,07,24,14,24,27.40
2010,07,24,14,25,27.40
2010,07,24,14,26,27.30
2010,07,24,14,27,27.30
2010,07,24,14,28,27.30
2010,07,24,14,29,27.30
2010,07,24,14,30,27.30
2010,07,24,14,31,27.30
2010,07,24,14,32,27.30
2010,07,24,14,33,27.30
2010,07,24,14,34,27.30
2010,07,24,14,35,27.30
2010,07,24,14,36,27.20
2010,07,24,14,37,27.30
2010,07,24,14,38,27.30
2010,07,24,14,39,27.30
2010,07,24,14,40,27.20
2010,07,24,14,41,27.20
2010,07,24,14,42,27.10
2010,07,24,14,43,27.10
2010,07,24,14,44,27.20
2010,07,24,14,45,27.10
2010,07,24,14,46,27.10
2010,07,24,14,47,27.10
2010,07,24,14,48,27.10
2010,07,24,14,49,27.10
2010,07,24,14,50,27.20
2010,07,24,14,51,27.20
2010,07,24,14,52,27.30
2010,07,24,14,53,27.30
2010,07,24,14,54,27.30
2010,07,24,14,55,27.30
2010,07,24,14,56,27.20
2010,07,24,14,57,27.20
2010,07,24,14,58,27.20
2010,07,24,14,59,27.20
2010,07,24,15,00,27.20
2010,07,24,15,01,27.30
2010,07,24,15,02,27.30
2010,07,24,15,03,27.40
2010,07,24,15,04,27.50
2010,07,24,15,05,27.50
2010,07,24,15,06,27.40
2010,07,24,15,07,27.30
2010,07,24,15,08,27.20
2010,07,24,15,09,27.10
2010,07,24,15,10,27.10
2010,07,24,15,11,27.10
2010,07,24,15,12,27.10
2010,07,24,15,13,27.10
2010,07,24,15,14,27.10
2010,07,24,15,15,27.00
2010,07,24,15,16,27.10
2010,07,24,15,17,27.10
2010,07,24,15,18,27.10
2010,07,24,15,19,27.10
2010,07,24,15,20,27.10
2010,07,24,15,21,27.10
2010,07,24,15,22,27.10
2010,07,24,15,23,27.10
2010,07,24,15,24,27.20
2010,07,24,15,25,27.10
2010,07,24,15,26,27.10
2010,07,24,15,27,27.10
2010,07,24,15,28,27.20
2010,07,24,15,29,27.20
2010,07,24,15,30,27.20
2010,07,24,15,31,27.30
2010,07,24,15,32,27.30
2010,07,24,15,33,27.30
2010,07,24,15,34,27.30
2010,07,24,15,35,27.30
2010,07,24,15,36,27.30
2010,07,24,15,37,27.30
2010,07,24,15,38,27.40
2010,07,24,15,39,27.50
2010,07,24,15,40,27.50
2010,07,24,15,41,27.50
2010,07,24,15,42,27.40
2010,07,24,15,43,27.40
2010,07,24,15,44,27.40
2010,07,24,15,45,27.40
2010,07,24,15,46,27.50
2010,07,24,15,47,27.50
2010,07,24,15,48,27.50
2010,07,24,15,49,27.40
2010,07,24,15,50,27.30
2010,07,24,15,51,27.20
2010,07,24,15,52,27.20
2010,07,24,15,53,27.20
2010,07,24,15,54,27.30
2010,07,24,15,55,27.40
2010,07,24,15,56,27.30
2010,07,24,15,57,27.30
2010,07,24,15,58,27.30
2010,07,24,15,59,27.30
2010,07,24,16,00,27.30
2010,07,24,16,01,27.20
2010,07,24,16,02,27.20
2010,07,24,16,03,27.10
2010,07,24,16,04,27.10
2010,07,24,16,05,27.00
2010,07,24,16,06,27.00
2010,07,24,16,07,27.00
2010,07,24,16,08,26.90
2010,07,24,16,09,26.90
2010,07,24,16,10,26.90
2010,07,24,16,11,27.00
2010,07,24,16,12,27.00
2010,07,24,16,13,27.00
2010,07,24,16,14,27.00
2010,07,24,16,15,27.00
2010,07,24,16,16,27.10
2010,07,24,16,17,27.10
2010,07,24,16,18,27.10
2010,07,24,16,19,27.00
2010,07,24,16,20,27.00
2010,07,24,16,21,26.90
2010,07,24,16,22,26.90
2010,07,24,16,23,27.00
2010,07,24,16,24,27.00
2010,07,24,16,25,27.00
2010,07,24,16,26,27.00
2010,07,24,16,27,27.10
2010,07,24,16,28,27.10
2010,07,24,16,29,27.10
2010,07,24,16,30,27.20
2010,07,24,16,31,27.20
2010,07,24,16,32,27.20
2010,07,24,16,33,27.30
2010,07,24,16,34,27.30
2010,07,24,16,35,27.40
2010,07,24,16,36,27.40
2010,07,24,16,37,27.40
2010,07,24,16,38,27.40
2010,07,24,16,39,27.50
2010,07,24,16,40,27.50
2010,07,24,16,41,27.50
2010,07,24,16,42,27.40
2010,07,24,16,43,27.40
2010,07,24,16,44,27.40
2010,07,24,16,45,27.40
2010,07,24,16,46,27.40
2010,07,24,16,47,27.50
2010,07,24,16,48,27.50
2010,07,24,16,49,27.40
2010,07,24,16,50,27.40
2010,07,24,16,51,27.50
2010,07,24,16,52,27.60
2010,07,24,16,53,27.70
2010,07,24,16,54,27.70
2010,07,24,16,55,27.70
2010,07,24,16,56,27.60
2010,07,24,16,57,27.60
2010,07,24,16,58,27.60
2010,07,24,16,59,27.60
2010,07,24,17,00,27.60
2010,07,24,17,01,27.60
2010,07,24,17,02,27.60
2010,07,24,17,03,27.60
2010,07,24,17,04,27.60
2010,07,24,17,05,27.70
2010,07,24,17,06,27.70
2010,07,24,17,07,27.80
2010,07,24,17,08,27.80
2010,07,24,17,09,27.90
2010,07,24,17,10,27.90
2010,07,24,17,11,27.80
2010,07,24,17,12,27.70
2010,07,24,17,13,27.70
2010,07,24,17,14,27.80
2010,07,24,17,15,27.80
2010,07,24,17,16,27.80
2010,07,24,17,17,27.80
2010,07,24,17,18,27.80
2010,07,24,17,19,27.90
2010,07,24,17,20,27.90
2010,07,24,17,21,27.90
2010,07,24,17,22,27.90